This is the latest recevied weather packets stored in our database for station/object KB3AWQ. If no packets are shown the sender has not sent any weather packets the latest 10 day(s).
| Time | Temp. | Humidity | Pressure | Rain* | Wind** | Luminosity | Snow |
|---|---|---|---|---|---|---|---|
| 1777513466 | 11.11° C | 99% | 1008.4 hPa | 0 mm | - | 0 W/m² | - |
| 1777513166 | 11.11° C | 98% | 1008.3 hPa | 0 mm | - | 0 W/m² | - |
| 1777512866 | 11.11° C | 98% | 1008.3 hPa | 0 mm | - | 0 W/m² | - |
| 1777512566 | 11.11° C | 98% | 1008.3 hPa | 1.27 mm | - | 0 W/m² | - |
| 1777512268 | 11.11° C | 97% | 1008.3 hPa | 2.03 mm | - | 0 W/m² | - |
| 1777511967 | 11.11° C | 97% | 1008.2 hPa | 2.03 mm | - | 0 W/m² | - |
| 1777511667 | 11.67° C | 96% | 1008.1 hPa | 2.54 mm | - | 0 W/m² | - |
| 1777511366 | 11.11° C | 95% | 1008 hPa | 2.54 mm | - | 0 W/m² | - |
| 1777511067 | 11.11° C | 96% | 1008 hPa | 2.54 mm | - | 0 W/m² | - |
| 1777510768 | 11.11° C | 97% | 1008.1 hPa | 2.54 mm | - | 0 W/m² | - |
| 1777510466 | 11.11° C | 97% | 1007.9 hPa | 2.79 mm | - | 0 W/m² | - |
| 1777510166 | 11.11° C | 99% | 1007.7 hPa | 4.57 mm | - | 0 W/m² | - |
| 1777509866 | 11.11° C | 99% | 1007.8 hPa | 4.57 mm | - | 0 W/m² | - |
| 1777509566 | 11.11° C | 100% | 1007.6 hPa | 4.32 mm | - | 0 W/m² | - |
| 1777509267 | 11.11° C | 100% | 1007.7 hPa | 4.32 mm | - | 0 W/m² | - |
| 1777508967 | 11.11° C | 99% | 1007.9 hPa | 5.33 mm | - | 0 W/m² | - |
| 1777508667 | 11.11° C | 99% | 1008 hPa | 3.3 mm | - | 0 W/m² | - |
| 1777508367 | 11.11° C | 98% | 1008.2 hPa | 3.3 mm | - | 0 W/m² | - |
| 1777508066 | 11.11° C | 97% | 1008.4 hPa | 2.79 mm | - | 0 W/m² | - |
| 1777507766 | 11.11° C | 96% | 1008.3 hPa | 2.54 mm | - | 0 W/m² | - |
| 1777507467 | 11.11° C | 96% | 1008 hPa | 2.54 mm | - | 0 W/m² | - |
| 1777507166 | 11.11° C | 97% | 1008 hPa | 3.05 mm | - | 1 W/m² | - |
| 1777506867 | 11.11° C | 96% | 1007.7 hPa | 2.79 mm | - | 1 W/m² | - |
| 1777506566 | 11.11° C | 96% | 1007.7 hPa | 3.05 mm | - | 1 W/m² | - |
| 1777506267 | 11.11° C | 96% | 1007.6 hPa | 3.05 mm | - | 2 W/m² | - |
* Rain latest hour (hover to see other rain measurements)
** Current wind speed in m/s (hover to see current wind gust speed)